Steamboat Springs, CO

5:24 AM MST on December 13, 2017 (GMT -0700)
Steamboat Springs-Adams

Weather History for KSBS - July, 2013

Change the Weather History Date:

Wednesday, July 31, 2013

  Actual Average Record
Temperature  
Mean Temperature 66 °F -  
Max Temperature 85 °F 82 °F 92 °F (1938)
Min Temperature 46 °F 42 °F 29 °F (1950)
Growing Degree Days 16 (Base 50)    
Moisture  
Dew Point 36 °F    
Average Humidity 41    
Maximum Humidity 89    
Minimum Humidity 8    
Precipitation  
Precipitation 0.00 in - - ()
Sea Level Pressure  
Sea Level Pressure 30.39 in    
Wind  
Wind Speed 2 mph (SE)    
Max Wind Speed 15 mph    
Max Gust Speed 21 mph    
Visibility 10 miles    
Events      
Averages and records for this station are not official NWS values.
T = Trace of Precipitation, MM = Missing Value Source: NWS Daily Summary

Daily Weather History Graph

Daily Weather History Graph

Search for Another Location

Airport or City:

Trip Planner

Search our weather history database for the weather conditions in past years. The results will help you decide how hot, cold, wet, or windy it might be!

Date:

Astronomy

Jul. 31, 2013 Rise Set
Actual Time 6:03 AM MDT 8:23 PM MDT
Civil Twilight 5:33 AM MDT 8:53 PM MDT
Nautical Twilight 4:55 AM MDT 9:31 PM MDT
Astronomical Twilight 4:13 AM MDT 10:13 PM MDT
Moon 1:01 AM MDT (7/31) 3:42 PM MDT (7/31)
Length of Visible Light 15h 20m
Length of Day
14h 19m
Waning Crescent, 31% of the Moon is Illuminated
Jul 31
Waning Crescent
Aug 6
New
Aug 14
First Quarter
Aug 20
Full
Aug 28
Last Quarter

Hourly Weather History & Observations

Time (MDT) Temp. Dew Point Humidity Pressure Visibility Wind Dir Wind Speed Gust Speed Precip Events Conditions
12:15 AM 58.5 °F 42.8 °F 56% 30.43 in 10.0 mi Calm Calm - N/A   Clear
12:55 AM 56.7 °F 43.2 °F 61% 30.43 in 10.0 mi Calm Calm - N/A   Clear
1:15 AM 54.7 °F 43.3 °F 66% 30.43 in 10.0 mi SE 5.8 mph - N/A   Clear
1:35 AM 53.6 °F 43.2 °F 68% 30.44 in 10.0 mi Calm Calm - N/A   Scattered Clouds
1:55 AM 55.0 °F 43.0 °F 64% 30.44 in 10.0 mi Calm Calm - N/A   Scattered Clouds
2:15 AM 55.4 °F 42.3 °F 61% 30.43 in 10.0 mi SE 3.5 mph - N/A   Scattered Clouds
2:35 AM 52.5 °F 43.3 °F 71% 30.43 in 10.0 mi Calm Calm - N/A   Scattered Clouds
2:55 AM 53.4 °F 42.8 °F 67% 30.43 in 10.0 mi Calm Calm - N/A   Clear
3:15 AM 50.9 °F 43.0 °F 74% 30.44 in 10.0 mi Calm Calm - N/A   Clear
3:35 AM 50.9 °F 43.7 °F 76% 30.44 in 10.0 mi Calm Calm - N/A   Scattered Clouds
3:55 AM 51.8 °F 43.0 °F 72% 30.44 in 10.0 mi Calm Calm - N/A   Mostly Cloudy
4:15 AM 50.0 °F 42.8 °F 76% 30.43 in 10.0 mi ESE 3.5 mph - N/A   Scattered Clouds
4:35 AM 48.6 °F 42.4 °F 79% 30.43 in 10.0 mi Calm Calm - N/A   Clear
4:55 AM 49.5 °F 42.8 °F 78% 30.44 in 10.0 mi Calm Calm - N/A   Clear
5:15 AM 50.5 °F 42.6 °F 74% 30.44 in 10.0 mi Calm Calm - N/A   Clear
5:35 AM 49.1 °F 42.4 °F 78% 30.44 in 10.0 mi Calm Calm - N/A   Clear
5:55 AM 50.0 °F 41.9 °F 74% 30.45 in 10.0 mi Calm Calm - N/A   Clear
6:15 AM 48.2 °F 41.9 °F 79% 30.46 in 10.0 mi Calm Calm - N/A   Clear
6:35 AM 46.8 °F 43.7 °F 89% 30.46 in 10.0 mi Calm Calm - N/A   Clear
6:55 AM 49.1 °F 43.3 °F 81% 30.46 in 10.0 mi Calm Calm - N/A   Clear
7:15 AM 50.5 °F 43.0 °F 75% 30.46 in 10.0 mi Calm Calm - N/A   Clear
7:35 AM 53.1 °F 42.1 °F 66% 30.46 in 10.0 mi Calm Calm - N/A   Clear
7:55 AM 55.2 °F 42.6 °F 63% 30.46 in 10.0 mi Calm Calm - N/A   Clear
8:15 AM 56.7 °F 43.2 °F 61% 30.46 in 10.0 mi Calm Calm - N/A   Clear
8:35 AM 59.2 °F 42.8 °F 55% 30.47 in 10.0 mi Calm Calm - N/A   Clear
8:55 AM 61.9 °F 42.8 °F 50% 30.46 in 10.0 mi Calm Calm - N/A   Clear
9:15 AM 63.5 °F 43.5 °F 48% 30.47 in 10.0 mi Calm Calm - N/A   Clear
9:35 AM 66.0 °F 42.4 °F 42% 30.46 in 10.0 mi Calm Calm - N/A   Clear
9:55 AM 67.5 °F 41.0 °F 38% 30.46 in 10.0 mi Calm Calm - N/A   Clear
10:15 AM 69.8 °F 41.5 °F 36% 30.45 in 10.0 mi Calm Calm - N/A   Clear
10:35 AM 72.0 °F 40.5 °F 32% 30.45 in 10.0 mi Calm Calm - N/A   Clear
10:55 AM 74.8 °F 39.7 °F 28% 30.45 in 10.0 mi Calm Calm - N/A   Clear
11:15 AM 76.8 °F 39.4 °F 26% 30.44 in 10.0 mi Calm Calm - N/A   Clear
11:35 AM 78.1 °F 36.3 °F 22% 30.44 in 10.0 mi Calm Calm - N/A   Clear
11:55 AM 79.5 °F 34.7 °F 20% 30.42 in 10.0 mi SE 4.6 mph - N/A   Clear
12:15 PM 80.8 °F 31.3 °F 17% 30.42 in 10.0 mi SSE 3.5 mph - N/A   Clear
12:35 PM 81.9 °F 22.5 °F 11% 30.41 in 10.0 mi WSW 4.6 mph - N/A   Clear
12:55 PM 82.6 °F 17.1 °F 9% 30.40 in 10.0 mi SW 9.2 mph - N/A   Clear
1:15 PM 84.7 °F 16.9 °F 8% 30.39 in 10.0 mi SW 6.9 mph - N/A   Clear
1:35 PM 80.4 °F 23.5 °F 12% 30.39 in 10.0 mi SW 10.4 mph 16.1 mph N/A   Scattered Clouds
1:55 PM 79.3 °F 25.0 °F 13% 30.39 in 10.0 mi SSW 6.9 mph - N/A   Scattered Clouds
2:15 PM 83.5 °F 21.6 °F 10% 30.39 in 10.0 mi SSW 11.5 mph 17.3 mph N/A   Clear
2:35 PM 85.3 °F 25.9 °F 12% 30.38 in 10.0 mi East 9.2 mph - N/A   Clear
2:55 PM 83.7 °F 26.8 °F 13% 30.36 in 10.0 mi ESE 15.0 mph 20.7 mph N/A   Clear
3:15 PM 81.5 °F 26.4 °F 13% 30.37 in 10.0 mi SE 8.1 mph - N/A   Scattered Clouds
3:35 PM 80.6 °F 31.1 °F 17% 30.37 in 10.0 mi SSW 8.1 mph - N/A   Scattered Clouds
3:55 PM 82.0 °F 22.5 °F 11% 30.36 in 10.0 mi SSE 8.1 mph - N/A   Scattered Clouds
4:15 PM 80.2 °F 28.2 °F 15% 30.36 in 10.0 mi South 4.6 mph - N/A   Scattered Clouds
4:35 PM 82.4 °F 32.7 °F 17% 30.36 in 10.0 mi South 11.5 mph 16.1 mph N/A   Scattered Clouds
4:55 PM 76.8 °F 33.8 °F 21% 30.36 in 10.0 mi South 10.4 mph 20.7 mph N/A   Scattered Clouds
5:15 PM 78.3 °F 33.8 °F 20% 30.36 in 10.0 mi East 10.4 mph - N/A   Mostly Cloudy
5:35 PM 79.7 °F 34.3 °F 19% 30.35 in 10.0 mi East 10.4 mph - N/A   Scattered Clouds
5:55 PM 80.1 °F 34.3 °F 19% 30.34 in 10.0 mi East 6.9 mph - N/A   Clear
6:15 PM 80.2 °F 29.8 °F 16% 30.33 in 10.0 mi ESE 8.1 mph - N/A   Clear
6:35 PM 80.2 °F 28.8 °F 15% 30.32 in 10.0 mi ESE 9.2 mph - N/A   Clear
6:55 PM 79.7 °F 28.8 °F 16% 30.31 in 10.0 mi ESE 6.9 mph - N/A   Clear
7:15 PM 79.7 °F 31.8 °F 18% 30.31 in 10.0 mi Calm Calm - N/A   Clear
7:35 PM 78.1 °F 33.8 °F 20% 30.31 in 10.0 mi ESE 3.5 mph - N/A   Clear
7:55 PM 76.5 °F 36.0 °F 23% 30.31 in 10.0 mi ENE 4.6 mph - N/A   Clear
8:15 PM 73.6 °F 36.3 °F 26% 30.31 in 10.0 mi East 4.6 mph - N/A   Clear
8:35 PM 71.6 °F 36.5 °F 28% 30.31 in 10.0 mi East 5.8 mph - N/A   Clear
8:55 PM 69.3 °F 34.9 °F 28% 30.31 in 10.0 mi East 6.9 mph - N/A   Clear
9:15 PM 68.2 °F 36.0 °F 31% 30.31 in 10.0 mi East 6.9 mph - N/A   Clear
9:35 PM 65.7 °F 38.7 °F 37% 30.32 in 10.0 mi Calm Calm - N/A   Clear
9:55 PM 66.2 °F 36.5 °F 33% 30.32 in 10.0 mi Calm Calm - N/A   Clear
10:15 PM 65.5 °F 35.2 °F 33% 30.32 in 10.0 mi East 4.6 mph - N/A   Clear
10:35 PM 63.9 °F 36.0 °F 36% 30.32 in 10.0 mi Calm Calm - N/A   Clear
10:55 PM 63.7 °F 36.5 °F 36% 30.31 in 10.0 mi Calm Calm - N/A   Clear
11:15 PM 61.9 °F 37.2 °F 40% 30.31 in 10.0 mi Calm Calm - N/A   Clear
11:35 PM 61.7 °F 36.7 °F 39% 30.31 in 10.0 mi Calm Calm - N/A   Clear
11:55 PM 59.2 °F 38.3 °F 46% 30.31 in 10.0 mi Calm Calm - N/A   Clear